FW6176 Weather Reports


Display with metric or nautical units.
time (UTC)temp
F
wind
direction
speed
MPH
gust
MPH
rain 1hr
in
rain 24hr
in
rain mn
in
humidity
%
barometer
mb
20260902234552 97 208 0.0 0.0 0.00 0.00 0.00 40 1012.2
20260902233100 98 140 0.0 1.0 0.00 0.00 0.00 39 1012.2
20260902231551 97 13 0.0 3.0 0.00 0.00 0.00 41 1012.1
20260902230050 97 355 0.0 2.0 0.00 0.00 0.00 41 1012.1
20260902224553 97 276 0.0 1.0 0.00 0.00 0.00 40 1012.1
20260902223101 98 191 0.0 3.0 0.00 0.00 0.00 39 1012.2
20260902221548 99 137 0.0 3.0 0.00 0.00 0.00 39 1012.3
20260902220046 101 144 0.0 1.0 0.00 0.00 0.00 39 1012.3
20260902214547 102 96 0.0 2.0 0.00 0.00 0.00 38 1012.4
20260902213044 102 117 0.0 2.0 0.00 0.00 0.00 38 1012.5
20260902211543 102 285 0.0 3.0 0.00 0.00 0.00 39 1012.6
20260902210042 102 155 0.0 3.0 0.00 0.00 0.00 38 1012.7
20260902204552 102 143 0.0 3.0 0.00 0.00 0.00 39 1012.9
20260902203039 102 144 0.0 4.0 0.00 0.00 0.00 38 1012.9
20260902201540 102 227 0.0 5.0 0.00 0.00 0.00 38 1013.2
20260902200034 102 41 0.0 2.0 0.00 0.00 0.00 36 1013.3
20260902194533 102 214 0.0 5.0 0.00 0.00 0.00 40 1013.5
20260902193033 102 99 0.0 2.0 0.00 0.00 0.00 38 1013.6
20260902191529 101 317 0.0 6.0 0.00 0.00 0.00 41 1013.7
20260902190029 101 136 0.0 3.0 0.00 0.00 0.00 42 1014.1
20260902184532 101 91 0.0 2.0 0.00 0.00 0.00 43 1014.2
20260902183037 100 42 0.0 4.0 0.00 0.00 0.00 45 1014.3
20260902181518 99 294 2.0 6.0 0.00 0.00 0.00 44 1014.3
20260902180014 100 290 0.0 3.0 0.00 0.00 0.00 46 1014.6
20260902174518 99 15 0.0 3.0 0.00 0.00 0.00 48 1014.8
20260902173021 99 18 0.0 6.0 0.00 0.00 0.00 48 1015.0
20260902171509 99 295 1.0 4.0 0.00 0.00 0.00 46 1015.3
20260902170006 98 277 0.0 4.0 0.00 0.00 0.00 51 1015.4
20260902164502 98 285 0.0 5.0 0.00 0.00 0.00 48 1015.6
20260902163104 98 270 0.0 3.0 0.00 0.00 0.00 48 1015.6
20260902161656 97 278 0.0 3.0 0.00 0.00 0.00 48 1015.5
20260902160053 97 240 0.0 4.0 0.00 0.00 0.00 48 1015.7
20260902154550 96 224 0.0 3.0 0.00 0.00 0.00 49 1015.7
20260902153148 96 297 0.0 3.0 0.00 0.00 0.00 49 1015.7
20260902151546 95 267 0.0 1.0 0.00 0.00 0.00 51 1015.7
20260902150041 94 271 0.0 3.0 0.00 0.00 0.00 50 1015.7
20260902144537 94 103 0.0 3.0 0.00 0.00 0.00 52 1015.7
20260902143033 94 82 0.0 4.0 0.00 0.00 0.00 53 1015.6
20260902141529 92 233 0.0 3.0 0.00 0.00 0.00 55 1015.7
20260902140026 91 143 0.0 2.0 0.00 0.00 0.00 57 1015.7
20260902134522 90 240 0.0 2.0 0.00 0.00 0.00 59 1015.9
20260902133018 87 263 0.0 1.0 0.00 0.00 0.00 61 1016.2
20260902131516 86 224 0.0 1.0 0.00 0.00 0.00 62 1016.2
20260902130014 85 75 0.0 0.0 0.00 0.00 0.00 64 1016.0
20260902124515 84 86 0.0 0.0 0.00 0.00 0.00 64 1016.0
20260902123013 84 86 0.0 0.0 0.00 0.00 0.00 64 1015.7
20260902121512 83 87 0.0 1.0 0.00 0.00 0.00 66 1015.6
20260902120010 82 118 0.0 2.0 0.00 0.00 0.00 66 1015.5
20260902114510 82 110 0.0 1.0 0.00 0.00 0.00 66 1015.3
20260902113011 82 60 0.0 1.0 0.00 0.00 0.00 66 1015.3
20260902111507 82 61 0.0 0.0 0.00 0.00 0.00 65 1015.2
20260902110016 83 135 0.0 2.0 0.00 0.00 0.00 64 1015.2
20260902104512 83 70 0.0 0.0 0.00 0.00 0.00 64 1015.1
20260902103008 83 146 0.0 3.0 0.00 0.00 0.00 64 1015.0
20260902101502 83 92 0.0 2.0 0.00 0.00 0.00 64 1015.0
20260902100002 83 156 0.0 2.0 0.00 0.00 0.00 65 1014.9
20260902094600 83 114 0.0 1.0 0.00 0.00 0.00 65 1014.8
20260902093059 83 96 0.0 0.0 0.00 0.00 0.00 65 1014.7
20260902091600 83 146 0.0 2.0 0.00 0.00 0.00 65 1014.7
20260902090057 83 114 0.0 1.0 0.00 0.00 0.00 65 1014.5
20260902084558 83 79 0.0 1.0 0.00 0.00 0.00 65 1014.7
20260902083057 83 257 0.0 4.0 0.00 0.00 0.00 66 1014.4
20260902081555 84 125 0.0 1.0 0.00 0.00 0.00 65 1014.4
20260902080053 84 166 0.0 2.0 0.00 0.00 0.00 65 1014.4
20260902074552 84 172 0.0 1.0 0.00 0.00 0.00 65 1014.6
20260902073050 85 139 0.0 3.0 0.00 0.00 0.00 64 1014.7
20260902071549 85 119 0.0 3.0 0.00 0.00 0.00 64 1014.5
20260902070047 85 172 0.0 1.0 0.00 0.00 0.00 64 1014.6
20260902064545 85 122 0.0 2.0 0.00 0.00 0.00 63 1014.7
20260902063055 86 122 0.0 1.0 0.00 0.00 0.00 63 1014.7
20260902061601 86 125 0.0 4.0 0.00 0.00 0.00 63 1014.7
20260902060043 86 147 0.0 3.0 0.00 0.00 0.00 62 1014.7
20260902054540 86 221 0.0 5.0 0.00 0.00 0.00 62 1014.7
20260902053041 87 102 0.0 3.0 0.00 0.00 0.00 61 1014.7
20260902051553 87 98 0.0 2.0 0.00 0.00 0.00 61 1014.6
20260902050036 87 352 0.0 3.0 0.00 0.00 0.00 61 1014.7
20260902044600 87 239 0.0 4.0 0.00 0.00 0.00 60 1014.6
20260902043036 88 165 0.0 1.0 0.00 0.00 0.00 59 1014.6
20260902041542 88 206 0.0 2.0 0.00 0.00 0.00 59 1014.4
20260902040033 88 101 0.0 2.0 0.00 0.00 0.00 58 1014.4
20260902034533 88 143 0.0 2.0 0.00 0.00 0.00 58 1014.6
20260902033032 88 129 0.0 3.0 0.00 0.00 0.00 57 1014.5
20260902031548 88 54 0.0 2.0 0.00 0.00 0.00 56 1014.6
20260902030031 88 147 0.0 1.0 0.00 0.00 0.00 57 1014.5
20260902024529 88 108 0.0 1.0 0.00 0.00 0.00 57 1014.4
20260902023031 89 108 0.0 1.0 0.00 0.00 0.00 56 1014.2
20260902021528 89 107 0.0 2.0 0.00 0.00 0.00 55 1014.0
20260902020027 90 134 0.0 1.0 0.00 0.00 0.00 54 1013.8
20260902014536 90 356 0.0 1.0 0.00 0.00 0.00 53 1013.6
20260902013030 91 98 0.0 2.0 0.00 0.00 0.00 52 1013.5
20260902011530 92 105 0.0 2.0 0.00 0.00 0.00 50 1013.5
20260902010031 92 116 0.0 1.0 0.00 0.00 0.00 49 1013.3
20260902004525 93 124 0.0 4.0 0.00 0.00 0.00 48 1013.3
20260902003025 94 107 0.0 1.0 0.00 0.00 0.00 47 1013.3
20260902001526 95 108 0.0 2.0 0.00 0.00 0.00 46 1013.3
20260902000023 96 287 0.0 3.0 0.00 0.00 0.00 45 1013.3